Home   Weather   Mobile   Past weeks

Flag for USA Past Weather in Mobile, Alabama, USA — Yesterday and Last 2 Weeks

Now
73 °F

Sunny.


Feels Like: 76 °F
Forecast: 58 / 77 °F
Wind: 5 mph from North

Location: Mobile Downtown Airport

Current Time: Feb 23, 2017 at 2:51:29 pm

Latest Report: Feb 23, 2017 at 1:53 pm


Visibility: 10 mi

Pressure: 29.79 "Hg

Humidity: 66%

Dew Point: 61 °F

Location of MobileLocation

Past Weather in Mobile — Graph

°F

Mobile Temperature Yesterday

Maximum temperature yesterday: 73 °F (at 2:53 pm)
Minimum temperature yesterday: 58 °F (at 4:53 am)
Average temperature yesterday: 64 °F

High & Low Weather Summary for the Past Weeks

 TemperatureHumidityPressure
High81 °F (Feb 12, 12:53 pm)100% (Feb 12, 3:23 am)30.42 "Hg (Feb 12, 3:23 am)
Low40 °F (Feb 16, 6:53 am)29% (Feb 13, 12:53 pm)29.71 "Hg (Feb 15, 1:53 am)
Average62 °F81%30.03 "Hg
* Reported Feb 8 12:53 pm — Feb 23 12:53 pm, Mobile, Weather by CustomWeather, © 2017

Note: Actual official high and low records may vary slightly from our data, if they occured in-between our weather recording intervals... More about our weather records

Advertising

Mobile Weather History for the Previous 24 Hours

Scroll right to see more
 ConditionsComfort  
Time TempWeatherWind HumidityBarometerVisibility
12:53 pm
Thu, Feb 23
71 °FSunny.5 mph71%29.82 "Hg10 mi
11:53 am67 °FScattered clouds.3 mph81%29.85 "Hg10 mi
11:13 am65 °FLow clouds.3 mph87%29.87 "Hg10 mi
10:53 am64 °FLow clouds.3 mph87%29.88 "Hg10 mi
10:05 am62 °FLow clouds.8 mph93%29.88 "Hg8 mi
9:53 am62 °FFog.5 mph93%29.88 "Hg2 mi
9:13 am61 °FFog.6 mph100%29.88 "Hg1 mi
8:53 am62 °FFog.8 mph96%29.87 "Hg5 mi
8:22 am62 °FPartly sunny.7 mph93%29.86 "Hg7 mi
7:53 am63 °FScattered clouds.3 mph93%29.85 "Hg10 mi
6:53 am58 °FFog.5 mph97%29.83 "Hg4 mi
6:31 am59 °FFog.3 mph100%29.83 "Hg6 mi
6:03 am59 °FFog.6 mph100%29.82 "Hg2 mi
5:12 am60 °FPassing clouds.3 mph96%29.82 "Hg10 mi
4:53 am60 °FClear.7 mph96%29.81 "Hg8 mi
3:53 am57 °FClear.5 mph96%29.81 "Hg10 mi
3:19 am58 °FClear.7 mph97%29.81 "Hg10 mi
2:53 am58 °FClear.5 mph97%29.81 "Hg10 mi
1:53 am60 °FClear.5 mph93%29.81 "Hg10 mi
12:53 am59 °FClear.5 mph93%29.82 "Hg10 mi
11:53 pm
Wed, Feb 22
61 °FClear.7 mph90%29.82 "Hg10 mi
10:53 pm61 °FClear.8 mph90%29.82 "Hg10 mi
9:53 pm62 °FClear.7 mph86%29.81 "Hg10 mi
8:53 pm66 °FClear.5 mph78%29.80 "Hg10 mi
7:53 pm64 °FClear.6 mph81%29.80 "Hg10 mi
6:53 pm66 °FPassing clouds.7 mph78%29.80 "Hg10 mi
5:53 pm67 °FClear.9 mph76%29.79 "Hg10 mi
4:53 pm71 °FMore clouds than sun.14 mph66%29.78 "Hg10 mi
3:53 pm72 °FOvercast.10 mph61%29.77 "Hg10 mi
2:53 pm73 °FScattered clouds.16 mph59%29.75 "Hg10 mi
Weather by CustomWeather, © 2017

See weather overviewHow to use our weather pages